Regional Weather Roundup
Issued by NWS

Home | Current Version | Previous Version | Graphics & Text | Print | Product List | Glossary On
Versions: 1 2 3 4 5 6 7 8 9 10 11 12 13 14 15 16 17 18 19 20 21 22 23 24 25 26 27 28 29 30 31 32 33 34 35 36 37 38 39 40 41 42 43 44 45 46 47 48 49 50
000
ASUS43 KIND 121409
RWRIN

WEATHER ROUNDUP FOR INDIANA
NATIONAL WEATHER SERVICE INDIANAPOLIS IN
900 AM EST TUE DEC 12 2017

NOTE: "FAIR" INDICATES FEW OR NO CLOUDS BELOW 12,000 FEET WITH NO
SIGNIFICANT WEATHER AND/OR OBSTRUCTIONS TO VISIBILITY.

* - STATION DOES NOT REPORT WEATHER SUCH AS PRECIPITATION OR FOG.

+ - STATION NOT QUALITY CONTROLLED BY THE NATIONAL WEATHER SERVICE.
    USE DATA WITH CAUTION...ESPECIALLY DEWPOINT AND RELATIVE
    HUMIDITY OBSERVATIONS.

INZ001>003-010>013-019-020-121500-
NORTHWEST INDIANA

CITY           SKY/WX    TMP DP  RH WIND       PRES   REMARKS
GARY /AIRPORT/ MOCLDY    21   7  53 W16G32    30.06R WCI   7
KNOX *+        CLOUDY    23  19  86 NW14      30.00R WCI  11
LA PORTE +     LGT SNOW  22  19  88 NW15      29.99S WCI   8
MICHIGAN CITY+ LGT SNOW  25  18  74 NW10G25   30.00S WCI  15
MONTICELLO +   PTCLDY    21  10  62 NW15      30.02S WCI   7
RENSSELAER +   CLEAR     21   7  53 NW15      30.05R WCI   8
VALPARAISO     FLURRIES  22  13  68 NW20G29   30.01R WCI   7

$$

LMZ046-743>745-121500-
SOUTHERN LAKE MICHIGAN

STATION/POSITION TIME  TEMP    WIND        PRES    WAVE
                       AIR SEA DIR/SP/G            HT
                 (UTC) (F)     (DEG/KT/KT) (MB)    (FT)
BURNS HARBOR     1340   23     300/ 21/ 31 1016.6R
MICHIGAN CITY    1340   24     300/ 32/ 37   N/A

$$

INZ004-005-014>016-021>024-121500-
NORTH CENTRAL INDIANA

CITY           SKY/WX    TMP DP  RH WIND       PRES   REMARKS
GOSHEN         CLOUDY    22  16  78 NW13      29.94R WCI  10
LOGANSPORT +   MOCLDY    21  12  68 NW13G24   30.01R WCI   9
PERU/GRISSOM   FLURRIES  26  17  66 W16G24    29.97R WCI  14
ROCHESTER +    PTCLDY    27  21  80 NW13G21   29.98R WCI  16
SOUTH BEND     CLOUDY    21  16  81 NW12      29.97R WCI   9
WARSAW +       LGT SNOW  23  19  86 NW14      29.95R WCI  11

$$

INZ006>009-017-018-025>027-121500-
NORTHEAST INDIANA

CITY           SKY/WX    TMP DP  RH WIND       PRES   REMARKS
AUBURN +       PTCLDY    23  10  58 NW8       29.93R WCI  14
FORT WAYNE     MOCLDY    22  14  71 N16       29.94R WCI   8
HUNTINGTON +   CLOUDY    23  16  74 NW8       29.95R WCI  14
KENDALLVILLE + MOCLDY    19  11  71 N13       29.92R WCI   7

$$

INZ028-029-035-036-043>045-051>053-121500-
WEST CENTRAL INDIANA

CITY           SKY/WX    TMP DP  RH WIND       PRES   REMARKS
CRAWFORDSVL +  CLEAR     20  12  72 NW18G28     N/A  WCI   5
GREENCASTLE +  CLEAR     23  12  63 NW8       30.05R WCI  14
LAFAYETTE      CLEAR     20  12  71 NW14G23   30.05R WCI   7
TERRE HAUTE    CLEAR     24  10  55 NW15G26   30.10R WCI  11

$$

INZ030>032-037>040-046>048-054>057-064-065-121500-
CENTRAL INDIANA

CITY           SKY/WX    TMP DP  RH WIND       PRES   REMARKS
FRANKFORT +    PTCLDY    24  13  64 NW15G23   30.03R WCI  11
GREENWOOD *+   CLEAR     28  17  62 NW10G23   30.01  WCI  19
INDIANAPOLIS   PTCLDY    24  12  60 NW16G25   30.02R WCI  11
-EAGLE CREEK   CLEAR     24  12  60 NW14G24   30.01R WCI  12
KOKOMO +       FLURRIES  23  17  78 NW18      29.98R WCI   9
MARION +       CLOUDY    24  18  78 N12       29.96S HAZE    WCI  13
MT COMFORT *+  CLEAR     23  18  80 NW14G20   29.99R WCI  11
SHELBYVILLE    PTCLDY    25  14  63 NW14      29.99R WCI  13
ZIONSVILLE +   CLEAR     20  12  69 NW18      30.01R WCI   5

$$

INZ033-034-041-042-049-050-058-059-121500-
EAST CENTRAL INDIANA

CITY           SKY/WX    TMP DP  RH WIND       PRES   REMARKS
MUNCIE         CLOUDY    26  16  65 NW18G28   29.94R WCI  13
RICHMOND +     CLOUDY    27  21  80 NW18      29.91R WCI  13

$$

INZ060-061-067>069-081>083-085>088-121500-
SOUTHWEST INDIANA

CITY           SKY/WX    TMP DP  RH WIND       PRES   REMARKS
EVANSVILLE     CLOUDY    33  22  63 NW20G33   30.10R WCI  21
HUNTINGBURG +  LGT RAIN  33  21  61 NW18G29   30.05R WCI  22
WASHINGTON +   PTCLDY    29  15  57 NW24G31   30.09R WCI  15

$$

INZ062-063-066-070>080-084-089>092-121500-
SOUTH CENTRAL AND SOUTHEAST INDIANA

CITY           SKY/WX    TMP DP  RH WIND       PRES   REMARKS
BEDFORD +      MOCLDY    30  18  59 NW9G21    30.01R WCI  22
BLOOMINGTON    PTCLDY    27  11  51 NW10G20   30.02R WCI  17
MADISON *+     CLOUDY    32  19  59 NW14      29.98R WCI  22
NORTH VERNON + CLOUDY    28  16  59 NW14G23   29.98R WCI  17
SEYMOUR +      CLOUDY    32  18  55 NW18G24   30.00R WCI  20

$$




USA.gov is the U.S. government's official web portal to all federal, state and local government web resources and services.